Location: Bremen
(53.0793°N, 8.8017°E)
Time: 23:08:46
(UTC+01:00)

Tiros 1 despin weight - All Passes

Search period start: 06 December 2021 00:00
Search period end: 16 December 2021 00:00
Orbit: 593 x 641 km, 48.2° (Epoch: 05 December)

Date Brightness Start Highest point End Pass type
(mag) Time Alt. Az. Time Alt. Az. Time Alt. Az.
06 Dec - 11:57:37 10° SSE 11:59:05 11° SE 12:00:34 10° ESE daylight
06 Dec - 13:35:45 10° SW 13:39:38 30° SSE 13:43:31 10° E daylight
06 Dec - 15:16:25 10° WSW 15:20:39 45° S 15:24:51 10° ESE daylight
06 Dec - 16:57:43 10° W 17:01:40 32° SSW 17:05:37 10° SE visible
06 Dec - 18:40:16 10° WSW 18:42:16 13° SW 18:44:15 10° S visible
07 Dec - 12:11:47 10° S 12:14:48 18° SSE 12:17:49 10° ESE daylight
07 Dec - 13:51:28 10° SW 13:55:35 38° SSE 13:59:40 10° E daylight
07 Dec - 15:32:27 10° WSW 15:36:38 43° S 15:40:49 10° ESE daylight
07 Dec - 17:13:57 10° W 17:17:32 24° SSW 17:21:06 10° SSE visible
08 Dec - 12:26:56 10° SSW 12:30:36 26° SSE 12:34:16 10° E daylight
08 Dec - 14:07:20 10° WSW 14:11:32 44° S 14:15:44 10° ESE daylight
08 Dec - 15:48:31 10° W 15:52:36 37° SSW 15:56:40 10° SE daylight
08 Dec - 17:30:30 10° WSW 17:33:19 17° SSW 17:36:09 10° S visible
09 Dec - 11:03:31 10° S 11:05:51 14° SE 11:08:10 10° ESE daylight
09 Dec - 12:42:29 10° SW 12:46:29 34° SSE 12:50:29 10° E daylight
09 Dec - 14:23:18 10° WSW 14:27:32 45° S 14:31:44 10° ESE daylight
09 Dec - 16:04:41 10° W 16:08:31 29° SSW 16:12:20 10° SE daylight
09 Dec - 17:48:12 10° SW 17:49:00 10° SW 17:49:49 10° SSW visible
10 Dec - 11:18:14 10° SSW 11:21:36 21° SSE 11:24:56 10° ESE daylight
10 Dec - 12:58:15 10° WSW 13:02:26 41° S 13:06:36 10° E daylight
10 Dec - 14:39:21 10° W 14:43:31 41° S 14:47:40 10° ESE daylight
10 Dec - 16:21:01 10° WSW 16:24:21 21° SSW 16:27:41 10° SSE daylight
11 Dec - 09:56:08 10° SSE 09:56:56 10° SE 09:57:43 10° SE daylight
11 Dec - 11:33:34 10° SW 11:37:26 29° SSE 11:41:16 10° E daylight
11 Dec - 13:14:11 10° WSW 13:18:26 45° S 13:22:38 10° ESE daylight
11 Dec - 14:55:27 10° W 14:59:27 34° SSW 15:03:27 10° SE daylight
11 Dec - 16:37:45 10° WSW 16:40:05 14° SW 16:42:26 10° S daylight
12 Dec - 10:09:45 10° S 10:12:37 17° SSE 10:15:28 10° ESE daylight
12 Dec - 11:49:14 10° SW 11:53:21 37° SSE 11:57:26 10° E daylight
12 Dec - 13:30:11 10° WSW 13:34:24 44° S 13:38:36 10° ESE daylight
12 Dec - 15:11:40 10° W 15:15:20 26° SSW 15:19:00 10° SSE daylight
13 Dec - 10:24:46 10° SSW 10:28:24 24° SSE 10:32:00 10° E daylight
13 Dec - 12:05:04 10° WSW 12:09:18 43° S 12:13:30 10° ESE daylight
13 Dec - 13:46:15 10° W 13:50:23 39° SSW 13:54:29 10° SE daylight
13 Dec - 15:28:06 10° WSW 15:31:08 18° SSW 15:34:10 10° SSE daylight
14 Dec - 09:01:37 10° S 09:03:39 13° SE 09:05:42 10° ESE daylight
14 Dec - 10:40:15 10° SW 10:44:15 32° SSE 10:48:14 10° E daylight
14 Dec - 12:21:01 10° WSW 12:25:17 45° S 12:29:31 10° ESE daylight
14 Dec - 14:02:22 10° W 14:06:18 31° SSW 14:10:11 10° SE daylight
14 Dec - 15:45:16 10° WSW 15:46:50 12° SW 15:48:25 10° SSW daylight
15 Dec - 09:16:07 10° SSW 09:19:23 20° SSE 09:22:37 10° ESE daylight
15 Dec - 10:55:59 10° WSW 11:00:12 40° SSE 11:04:21 10° E daylight
15 Dec - 12:37:03 10° W 12:41:16 42° S 12:45:27 10° ESE daylight
15 Dec - 14:18:38 10° W 14:22:08 23° SSW 14:25:37 10° SSE daylight
